Location: Ferchesar
(52.6477°N, 12.4298°E)
Time: 20:34:51
(UTC+02:00)

A-11 Canister half - Pass Details

Date: 11 March 2021
Orbit: 1525 x 1683 km, 47.3° (Epoch: 11 April)

Event Time Altitude Azimuth Distance (km) Brightness Sun altitude
Exits shadow 01:13:23 19° 108° (ESE) 3,128 10.5 -39.8°
Drops below altitude 10° 01:17:03 10° 87° (E) 3,786 11.2 -39.7°
Sets 01:20:53 0° 74° (ENE) 4,749 12.0 -39.5°
